GFSNW_925_temp_063.txt.gz
Temp
3 3 3 3 3 4 4 4 4 6 6 5 6 6 7 9 10 11 11 11 11 12 13 13 14 14 15 14 16 16 18 17 17 18 19 20 20 21 21 20 18 17 18 21
3 3 3 3 3 4 4 4 5 5 5 6 6 6 7 8 9 10 10 11 10 12 12 12 13 13 14 14 15 15 16 16 16 17 19 19 19 20 19 18 17 20 19 21
3 3 3 3 3 3 3 4 4 5 5 6 6 6 6 7 8 9 9 9 10 11 11 12 12 12 14 13 15 14 15 16 16 17 17 17 18 19 20 20 18 19 19 21
3 3 3 3 3 4 3 3 4 5 5 5 5 7 8 8 8 9 9 9 10 10 10 11 11 13 12 14 13 15 15 14 15 15 16 16 16 17 19 19 19 19 20 20
2 3 3 3 3 3 3 3 4 5 5 6 5 6 8 8 8 9 9 9 9 10 10 11 11 11 12 12 13 13 13 14 14 15 16 16 17 17 18 18 19 19 19 20
2 3 2 3 3 3 3 3 3 5 6 6 6 7 8 8 9 9 10 9 9 9 9 10 10 10 11 11 11 11 12 13 13 15 13 15 16 16 17 18 19 19 18 20
2 2 3 3 3 3 3 3 4 4 5 6 7 7 8 8 9 8 9 10 9 10 10 10 10 9 9 10 10 11 11 12 11 13 13 14 17 16 17 17 18 18 18 18
3 3 3 3 3 3 3 3 4 5 5 6 6 7 8 9 9 8 8 9 9 10 9 9 9 10 10 10 10 10 11 11 11 13 14 15 17 17 16 16 18 14 15 16
3 3 3 2 3 3 3 3 3 5 6 6 8 7 8 8 7 7 8 9 9 10 7 7 9 10 11 12 12 11 11 11 12 11 12 13 16 16 15 15 16 15 15 15
3 3 3 3 3 3 3 3 3 4 4 6 7 8 7 9 8 7 7 8 7 9 7 8 9 10 10 11 11 11 10 11 11 11 12 14 14 15 15 16 16 15 14 15
4 3 3 3 3 3 3 3 3 4 3 5 8 9 8 8 8 7 7 7 6 6 7 8 8 9 10 11 12 12 12 12 12 12 12 12 14 15 15 15 15 14 15 15
4 4 4 4 3 4 3 4 4 3 4 4 6 7 9 10 10 9 8 9 7 7 8 7 9 8 7 11 12 10 12 12 13 13 13 13 13 13 12 12 12 13 13 14
4 4 4 4 4 3 3 3 4 4 4 4 4 5 7 9 10 11 8 8 9 7 8 7 8 9 8 10 10 12 12 11 12 12 13 13 13 12 11 11 11 10 10 11
4 4 4 4 4 3 2 3 3 4 4 5 5 7 6 8 9 9 9 9 8 8 8 8 7 9 9 9 11 11 12 11 12 11 12 12 11 9 8 9 9 8 8 7
5 4 4 4 4 3 2 3 3 3 5 5 5 6 7 7 7 8 8 9 9 9 8 6 9 8 9 8 8 10 10 10 11 12 8 8 9 10 7 7 7 6 6 5
5 5 4 4 4 3 2 2 3 3 4 5 6 5 6 6 7 8 8 9 9 9 9 7 8 8 10 8 9 9 8 7 6 7 7 7 8 7 5 5 5 4 3 2
5 4 4 4 4 3 4 4 4 3 4 4 5 6 6 7 7 6 7 7 8 8 8 8 9 9 9 8 9 6 5 4 5 6 5 8 7 5 4 3 3 2 1 -0
5 4 4 4 4 3 4 4 3 4 4 4 5 6 6 7 6 6 7 7 7 7 7 6 8 8 8 7 3 3 3 3 4 3 3 4 5 4 2 2 2 1 -1 -1
4 4 4 2 1 3 4 3 3 5 4 5 4 6 7 6 6 6 6 7 6 5 6 6 7 7 7 1 1 1 1 1 1 2 3 3 3 1 0 -0 -1 -1 -2 -2
3 3 3 2 2 3 4 3 3 4 4 5 4 4 6 6 5 5 5 5 6 7 6 4 4 1 -1 -1 -0 -1 -1 -0 0 1 2 0 0 -0 -2 -2 -3 -3 -4 -4
4 3 4 4 4 4 4 4 4 3 4 4 5 4 5 3 6 6 5 6 6 7 6 7 4 1 -1 -1 -2 -2 -2 -2 -2 -1 -2 -2 -2 -2 -3 -4 -4 -5 -6 -6
4 3 2 1 1 3 4 4 3 4 5 4 5 4 4 4 4 5 5 6 6 6 2 3 0 -1 -2 -2 -3 -3 -3 -3 -3 -3 -4 -4 -4 -5 -5 -5 -6 -7 -8 -9
5 2 -0 2 -2 -1 1 3 2 2 1 2 4 5 4 4 5 5 6 6 3 2 0 -1 -2 -3 -3 -3 -3 -4 -4 -5 -5 -5 -6 -6 -6 -7 -7 -7 -8 -9 -9 -9
-0 -1 -3 -4 -3 -2 -2 -2 -2 -0 0 1 3 3 3 2 3 2 4 -0 0 -1 -1 -3 -3 -4 -4 -4 -4 -5 -6 -6 -6 -7 -7 -7 -8 -8 -8 -8 -9 -10 -10 -10
-2 -2 -4 -4 -4 -4 -3 -3 -2 -1 -1 1 2 -0 1 -1 -1 -1 0 -1 -2 -2 -3 -4 -5 -5 -5 -5 -5 -6 -6 -6 -7 -7 -8 -8 -9 -9 -9 -10 -10 -10 -10 -10
-4 -5 -5 -6 -5 -5 -5 -4 -3 -2 -2 -0 -0 -1 -2 -3 -3 -3 -3 -1 -3 -5 -5 -5 -6 -6 -6 -7 -7 -7 -7 -7 -7 -8 -8 -9 -9 -9 -10 -10 -11 -11 -11 -12
-4 -6 -7 -8 -7 -6 -5 -5 -4 -3 -1 -2 -1 -2 -1 -1 -4 -5 -5 -5 -6 -7 -6 -6 -7 -7 -7 -7 -8 -8 -8 -8 -8 -8 -9 -9 -10 -10 -10 -10 -11 -11 -12 -12

GFSNW_925_temp_069.txt.gz
Temp
3 3 3 3 3 3 4 7 6 9 9 6 9 7 11 13 14 16 15 15 15 16 17 16 16 13 14 12 13 15 19 18 17 20 23 22 23 23 24 23 23 25 24 24
2 2 3 3 3 3 7 5 8 8 7 7 9 10 12 13 13 14 15 15 16 16 16 15 17 15 13 12 12 13 12 17 17 17 20 23 21 23 24 24 23 19 21 24
3 2 3 3 3 3 4 5 6 9 8 9 10 11 11 12 13 13 14 15 16 16 14 15 15 16 13 13 12 12 14 16 17 18 20 22 22 23 24 24 22 22 23 24
2 2 2 3 3 4 4 4 6 9 7 9 10 11 11 12 13 13 14 14 15 14 13 14 14 16 16 16 12 13 14 13 15 19 19 21 21 22 23 23 23 22 23 24
2 2 3 3 3 3 3 4 6 9 9 10 10 10 11 11 13 13 13 13 15 15 14 14 14 16 15 14 15 13 13 13 12 16 20 20 20 21 22 22 22 23 23 23
2 2 3 3 3 2 3 4 6 7 8 9 9 9 11 11 12 13 13 13 14 14 14 14 14 15 14 15 14 13 13 12 12 14 16 17 17 20 20 20 22 22 22 22
2 2 3 3 3 3 3 5 6 5 6 8 10 11 9 10 11 11 11 14 13 13 13 13 14 14 14 14 14 14 13 13 13 12 14 14 18 22 21 20 21 22 22 22
3 2 2 3 3 3 3 5 5 6 6 10 10 11 11 11 11 10 11 12 12 11 11 10 12 13 13 13 15 15 15 14 13 12 13 14 19 19 19 18 19 21 21 22
3 3 3 3 3 3 3 4 4 5 5 8 11 11 11 10 10 9 11 9 9 7 8 9 11 13 14 14 15 15 15 15 14 15 13 14 17 19 19 20 16 20 20 20
3 3 3 3 3 3 3 4 4 4 4 8 8 9 11 12 12 10 11 9 7 7 9 10 12 13 16 14 13 13 14 14 13 14 15 18 20 19 19 17 15 19 19 19
3 3 3 3 3 3 3 3 4 4 4 7 9 10 9 11 11 8 9 8 7 7 9 10 13 13 14 15 16 14 14 14 14 15 15 15 19 19 17 17 18 17 18 17
3 3 3 3 3 3 3 4 4 3 4 5 7 9 10 10 9 8 7 9 7 9 10 12 12 13 13 15 15 16 15 16 16 16 16 18 18 16 16 16 16 15 15 15
4 4 3 3 3 3 2 3 3 2 3 4 7 8 8 9 10 10 8 11 11 11 11 9 12 12 15 13 15 16 17 17 16 16 17 16 16 16 15 15 14 14 14 13
4 4 4 3 3 3 2 3 3 3 3 5 9 9 9 9 9 10 10 9 10 10 10 10 11 12 15 14 12 16 15 16 17 17 16 17 16 14 13 13 13 13 13 12
5 4 4 3 4 3 3 3 3 3 7 8 9 11 9 10 8 9 8 7 9 8 8 10 11 13 14 15 14 15 17 15 16 14 13 14 14 12 11 11 11 10 10 10
5 5 4 3 3 3 3 2 3 3 4 6 7 10 10 9 9 9 9 7 8 7 7 10 12 14 13 12 13 14 13 12 12 12 11 12 11 9 9 8 8 8 8 6
5 4 4 3 3 2 4 5 4 3 4 5 7 8 10 11 11 10 9 8 7 7 7 9 12 12 12 13 12 7 9 10 10 9 9 10 8 6 6 6 6 6 5 3
5 5 4 3 3 3 4 3 4 4 4 5 7 8 8 10 9 8 8 7 6 6 7 9 11 13 11 9 6 6 6 8 8 7 8 6 6 5 3 3 4 3 2 1
5 4 3 3 3 4 4 3 4 4 5 6 7 8 7 7 8 7 7 7 6 7 7 8 10 10 5 2 3 3 3 3 4 5 7 6 5 3 3 2 2 2 2 1
4 2 1 2 4 3 3 3 3 4 5 7 8 8 7 8 8 7 7 7 9 7 7 7 8 3 2 3 3 2 2 2 3 3 3 3 3 3 2 1 1 0 -1 -2
3 2 3 3 3 4 4 5 5 5 6 8 8 8 7 7 9 7 8 8 9 10 8 8 8 4 2 2 2 1 1 1 1 2 1 0 0 0 0 -1 -2 -3 -4 -5
5 3 2 3 4 4 5 6 6 8 9 7 7 7 9 6 8 8 7 8 8 9 8 8 7 2 1 1 0 -0 -0 -0 -1 -1 -1 -2 -2 -2 -3 -3 -5 -6 -7 -7
5 4 3 4 4 6 7 6 7 6 5 4 6 6 6 6 6 6 7 7 8 7 7 6 3 1 -0 -1 -1 -2 -2 -2 -3 -3 -4 -4 -5 -5 -6 -6 -7 -7 -7 -8
5 4 2 4 4 4 4 4 4 2 4 4 6 5 7 5 6 6 6 4 5 7 7 4 1 -1 -2 -3 -3 -3 -4 -5 -5 -5 -6 -6 -7 -7 -7 -8 -8 -8 -9 -9
3 4 2 2 1 1 1 1 2 2 2 3 6 6 7 5 5 5 5 5 6 6 4 1 -1 -2 -3 -3 -4 -4 -5 -5 -5 -6 -6 -7 -7 -7 -8 -9 -9 -9 -10 -10
1 0 2 1 2 2 1 2 2 1 2 4 6 5 5 4 5 5 4 7 6 2 -0 -2 -3 -4 -4 -4 -4 -5 -5 -5 -6 -6 -7 -7 -8 -8 -9 -9 -10 -10 -10 -10
0 -0 -1 0 0 0 0 0 1 1 3 5 7 5 3 5 4 2 2 2 -0 -2 -2 -2 -3 -4 -4 -5 -5 -5 -5 -6 -6 -6 -7 -7 -8 -8 -8 -8 -9 -9 -10 -11

GFSNW_925_temp_072.txt.gz
Temp
3 3 3 2 3 3 3 3 5 10 9 6 6 6 10 13 15 16 16 16 16 16 17 17 17 18 14 14 14 14 14 13 14 16 19 18 20 19 20 20 20 22 22 24
3 3 3 3 3 3 2 5 8 9 7 7 8 10 11 12 13 15 15 15 16 16 16 16 17 17 15 14 13 11 11 14 14 16 19 17 17 18 18 20 20 20 19 23
2 2 2 3 3 3 1 4 5 9 7 9 9 10 10 12 14 14 15 15 16 16 16 17 15 15 15 14 13 11 12 13 14 15 16 14 17 19 20 19 17 19 19 23
2 2 2 2 2 3 1 4 6 8 7 8 9 10 9 12 13 15 15 14 15 15 14 16 15 17 15 13 11 13 11 11 13 13 14 16 16 18 19 19 20 21 22 22
2 2 2 2 2 3 2 4 7 9 7 9 10 10 10 11 12 13 13 14 15 15 15 15 14 16 15 14 14 14 12 11 12 13 16 16 14 19 19 18 20 22 23 22
2 2 2 2 3 2 2 4 6 7 7 9 9 9 11 12 13 13 12 12 13 13 14 14 14 14 13 13 14 13 13 11 11 12 13 15 17 17 18 20 21 21 20 19
2 2 2 2 3 3 3 3 7 6 6 8 9 10 11 11 12 12 14 14 13 13 13 14 14 15 15 15 14 15 13 12 10 11 12 14 17 17 18 19 18 18 19 20
2 2 2 3 3 3 3 3 4 6 6 9 10 11 10 10 12 11 12 13 10 11 12 12 12 13 13 13 14 15 14 13 11 11 12 13 17 15 16 19 16 16 18 20
3 2 3 3 3 3 3 4 4 4 5 7 10 10 11 10 10 11 11 10 10 10 9 9 10 12 13 13 14 16 15 14 13 12 12 13 15 16 14 13 12 16 17 19
3 3 3 3 3 3 3 4 4 4 4 7 7 8 8 11 12 10 10 8 9 10 9 9 10 12 15 13 14 14 13 13 12 13 12 16 19 16 15 13 13 15 17 17
4 3 3 3 3 3 2 4 5 4 4 6 8 9 8 8 10 8 9 8 9 7 7 10 12 12 13 14 15 14 13 13 12 13 14 14 17 17 16 15 15 17 16 15
4 4 3 3 3 3 2 4 5 4 4 7 7 7 8 9 9 6 6 7 7 10 10 11 10 12 12 14 14 17 14 15 15 15 15 16 16 16 16 16 15 14 14 14
4 4 4 3 3 3 3 3 5 4 4 4 6 7 8 9 10 10 6 9 10 8 9 9 10 10 13 13 14 13 15 15 14 16 15 15 15 15 15 14 14 13 13 13
3 4 4 4 3 3 3 2 4 4 4 4 7 9 9 9 10 10 9 9 10 10 10 8 9 10 13 12 14 14 15 15 17 12 11 10 12 12 13 12 12 12 12 11
4 4 4 4 3 3 3 3 3 4 6 6 7 9 11 11 10 10 10 10 10 7 8 9 10 10 11 13 14 10 13 12 13 10 12 10 10 10 11 10 10 10 9 8
5 4 4 4 3 3 3 1 2 3 5 5 6 6 11 11 11 10 10 9 7 7 7 9 11 12 10 11 11 7 11 11 10 9 11 10 10 8 8 8 8 8 7 5
5 5 4 4 4 3 3 4 4 3 3 4 6 8 10 11 10 9 9 9 7 7 7 7 10 11 12 10 9 5 6 10 9 9 10 9 6 6 6 6 6 5 4 2
5 5 4 3 3 3 4 4 5 3 4 4 6 8 8 10 9 8 8 7 6 7 7 9 10 12 11 6 4 5 5 7 6 7 8 6 6 5 5 5 5 4 2 0
5 4 3 3 3 3 4 4 3 4 4 6 6 7 7 9 9 7 7 6 6 6 7 8 10 7 4 2 3 3 3 3 4 6 5 6 5 5 4 3 3 2 1 -0
3 2 2 2 3 4 3 3 2 3 4 7 6 7 7 8 8 7 6 7 8 8 8 9 7 3 4 4 3 2 2 3 3 3 2 2 2 2 1 0 -0 -0 -2 -3
3 2 3 4 4 4 4 4 5 5 6 8 8 7 7 7 8 7 9 7 9 9 8 8 7 4 2 2 2 1 1 1 1 1 -0 -0 -0 -1 -1 -2 -3 -4 -5 -6
3 3 3 3 4 5 5 6 6 7 9 8 8 8 8 7 6 7 8 8 8 8 8 8 5 1 2 1 0 -0 -1 -1 -2 -2 -2 -3 -3 -3 -4 -4 -5 -6 -7 -7
5 5 4 5 4 6 6 6 7 7 6 5 6 7 7 7 7 7 8 7 8 8 7 5 2 0 0 -1 -1 -2 -3 -3 -3 -4 -5 -5 -6 -6 -6 -7 -7 -8 -8 -9
5 5 3 5 5 4 4 4 4 3 5 5 6 6 7 6 6 6 7 5 6 7 7 3 -0 -1 -2 -2 -3 -3 -4 -5 -5 -6 -6 -7 -7 -7 -8 -8 -8 -9 -9 -10
4 5 3 3 2 2 2 2 3 3 2 4 6 7 7 6 6 6 6 6 7 5 3 0 -1 -2 -3 -3 -4 -4 -5 -5 -5 -6 -7 -7 -8 -8 -8 -9 -9 -10 -10 -10
2 1 3 2 3 3 2 3 3 2 2 3 7 6 6 5 6 6 5 6 5 2 -1 -2 -3 -3 -4 -4 -4 -4 -5 -5 -6 -6 -7 -7 -8 -8 -9 -9 -10 -10 -10 -10
1 0 0 2 2 1 1 1 2 2 3 5 6 6 4 5 5 3 2 2 -0 -1 -2 -2 -3 -4 -4 -4 -5 -5 -5 -6 -6 -6 -6 -7 -7 -7 -7 -8 -9 -9 -10 -10

GFSNW_925_temp_075.txt.gz
Temp
3 3 3 3 3 2 2 3 3 7 8 5 5 5 8 10 10 12 12 13 14 14 14 14 15 15 13 14 14 13 12 12 12 14 16 16 15 14 14 14 16 18 17 17
3 2 2 2 3 3 2 3 3 6 7 5 5 7 8 8 9 11 12 13 14 15 14 13 15 14 13 13 13 11 11 11 12 14 16 18 15 15 15 14 14 15 16 18
2 2 2 2 2 3 2 2 3 4 3 3 6 6 8 9 11 11 12 13 14 14 13 14 14 15 13 13 13 11 11 12 12 12 13 11 12 14 16 14 14 16 17 20
2 2 2 2 2 2 2 1 3 5 1 4 5 6 7 8 10 12 13 12 13 13 12 13 13 14 12 13 11 11 11 10 12 13 13 13 13 13 13 15 14 15 17 20
2 2 2 2 2 2 2 3 3 5 4 5 5 7 8 8 9 9 10 12 13 12 11 13 13 13 12 12 11 11 11 10 11 12 15 13 13 14 13 15 16 15 16 16
2 2 2 2 2 2 0 2 3 4 5 6 5 6 7 9 11 11 11 9 9 9 11 11 12 11 11 12 12 9 10 10 9 11 12 11 12 14 14 15 16 16 15 16
2 2 2 2 2 2 2 2 4 3 3 5 7 8 8 6 8 9 11 11 9 10 11 11 11 11 12 11 11 12 11 11 10 10 11 13 14 16 16 15 15 16 16 17
3 3 3 3 3 2 2 3 3 3 2 5 7 8 9 9 9 8 10 11 8 8 10 8 9 9 11 11 12 11 12 11 10 10 11 13 15 13 13 15 13 13 13 15
3 3 2 2 3 2 2 2 3 3 3 4 8 6 7 6 7 8 9 7 8 7 8 7 8 8 11 11 12 13 13 11 10 10 11 12 14 13 14 15 12 12 13 13
3 3 3 3 3 3 2 3 3 3 3 4 6 5 5 5 5 6 8 8 8 8 6 5 6 8 13 11 11 11 11 11 10 10 10 12 15 14 15 12 12 12 13 13
3 3 3 3 3 3 2 3 3 3 2 4 5 6 5 6 6 6 6 7 7 7 5 6 8 7 11 11 9 12 11 10 9 10 11 11 14 13 12 12 12 13 12 12
3 3 4 3 3 3 2 3 3 4 3 3 5 6 6 7 7 6 4 5 6 8 8 7 7 8 9 11 10 12 11 12 11 12 11 13 13 12 13 13 12 12 11 11
3 3 4 4 4 3 3 3 4 4 2 3 4 4 7 7 7 7 5 6 6 6 7 8 8 8 9 9 10 10 12 14 13 13 12 12 12 12 12 12 11 11 10 9
4 4 4 4 4 4 3 3 3 4 2 1 4 7 7 8 8 8 7 7 6 6 7 6 7 8 9 9 9 9 7 12 10 8 6 8 8 10 10 10 10 9 8 7
4 4 4 4 4 4 3 3 3 4 5 4 4 5 9 9 9 9 8 7 7 6 6 7 7 9 8 8 9 7 7 6 8 8 7 6 6 8 8 8 7 6 6 5
4 4 4 4 4 3 4 1 2 3 4 3 3 6 6 9 10 8 8 7 5 6 7 7 7 9 8 8 7 5 5 7 7 6 8 7 6 6 7 6 5 3 2 2
4 4 4 4 4 3 3 3 4 2 3 3 4 5 7 9 9 6 7 7 6 6 6 7 7 8 8 7 6 3 3 5 6 7 8 5 4 4 5 5 3 2 -0 -1
4 5 4 4 3 2 3 4 4 3 3 3 4 5 5 9 6 6 6 6 6 6 6 7 7 8 5 3 3 2 3 5 4 6 6 6 5 4 3 3 2 0 -1 -2
5 4 4 2 2 2 3 4 3 3 4 4 4 6 6 7 6 6 6 6 5 6 6 6 7 4 2 2 1 1 2 2 2 4 2 3 2 2 1 0 -0 -1 -2 -3
3 3 2 2 3 3 3 3 3 3 4 4 5 5 5 6 5 5 6 5 6 7 6 7 4 2 2 1 1 0 0 0 0 0 -0 0 -0 -1 -2 -3 -3 -3 -4 -6
3 2 3 3 3 3 3 3 4 4 4 4 5 5 5 6 6 6 5 6 5 7 7 7 5 2 0 -0 -1 -1 -1 -1 -2 -2 -3 -3 -3 -3 -4 -5 -5 -6 -7 -8
3 4 3 3 4 4 4 5 4 5 5 4 5 5 6 5 6 5 5 6 6 7 6 7 2 -0 -1 -2 -3 -3 -3 -3 -4 -4 -5 -5 -5 -5 -6 -6 -7 -8 -8 -9
5 4 3 4 3 4 4 4 3 5 5 4 4 5 5 5 6 5 5 7 6 3 5 1 -1 -2 -2 -3 -3 -4 -5 -5 -5 -6 -6 -7 -8 -8 -8 -9 -9 -9 -10 -10
4 3 -1 3 4 3 3 3 4 3 3 4 4 4 5 4 5 5 6 4 5 5 3 -0 -3 -5 -5 -5 -4 -5 -7 -7 -8 -9 -9 -9 -9 -9 -9 -9 -9 -10 -10 -10
2 2 1 0 0 -1 1 2 2 2 2 3 4 3 5 5 5 5 4 6 5 1 -2 -4 -4 -5 -5 -7 -6 -6 -8 -9 -8 -8 -9 -9 -9 -10 -10 -10 -10 -10 -10 -10
0 -1 1 0 1 1 1 2 2 1 2 2 3 6 5 5 4 4 1 4 -0 -3 -5 -5 -6 -7 -8 -6 -6 -7 -6 -7 -7 -8 -8 -8 -9 -10 -10 -10 -10 -10 -10 -11
0 -2 -2 0 -2 -1 -0 0 1 1 2 5 3 4 4 3 1 -0 -1 -3 -3 -4 -4 -6 -8 -8 -9 -8 -6 -6 -6 -6 -7 -7 -8 -8 -9 -9 -9 -10 -10 -10 -10 -11